Temperature
21 18 18 19 19 20 20 20 19 20 20 20 19 18 18 19 19 18 18 18 18 18 18 18 18 18 17 17 17 17 16 16 16 16 16 15 15 15 15 15 15 15 15 14
18 18 19 20 20 20 20 20 19 20 20 20 19 18 18 18 18 18 18 18 18 18 18 18 17 17 17 17 17 17 16 16 16 16 16 15 15 15 15 15 15 15 14 14
18 19 21 21 20 20 20 20 20 20 20 19 19 18 18 18 18 18 18 18 18 18 17 17 17 17 17 17 17 16 16 16 16 16 15 15 15 15 15 14 14 14 14 14
19 20 20 20 20 20 19 20 20 20 18 17 18 16 17 17 17 17 17 18 18 18 18 17 17 17 17 17 17 16 16 16 16 16 15 15 15 15 15 14 14 14 14 14
18 19 19 19 20 20 19 20 20 19 18 17 17 17 16 16 16 16 17 17 18 18 18 17 17 17 17 17 16 16 16 16 15 15 15 15 15 15 15 14 14 14 14 14
19 20 20 20 20 20 20 19 18 16 16 16 17 16 16 16 17 17 17 17 17 17 17 17 17 17 16 16 16 16 16 16 15 15 15 15 15 15 15 14 14 14 14 14
18 19 20 20 19 19 18 16 16 16 15 16 17 16 16 17 17 17 17 17 17 17 17 17 16 16 16 16 16 16 16 16 15 15 15 15 15 14 14 14 14 14 14 14
16 17 18 19 19 18 18 16 15 16 15 15 17 16 16 17 18 18 17 17 17 17 17 17 16 16 16 16 15 15 15 15 15 15 15 14 14 14 14 14 14 14 14 13
16 16 19 19 19 19 18 16 16 15 16 16 16 16 17 17 17 17 17 16 16 17 17 17 16 16 16 16 15 15 15 15 15 15 14 14 14 14 14 14 14 14 13 13
17 16 18 19 19 19 18 17 14 15 15 15 16 16 15 16 16 16 16 16 16 16 16 16 16 16 16 16 15 15 15 15 14 14 14 14 14 14 14 13 13 13 13 13
16 16 16 17 17 17 17 17 15 14 14 14 15 15 16 16 16 16 16 16 16 16 16 16 16 16 16 16 15 15 15 14 14 14 14 14 13 13 13 13 13 13 13 13
15 14 14 16 17 18 17 17 15 14 14 14 13 14 17 16 16 16 16 17 16 16 16 16 16 16 15 15 15 15 14 14 14 14 13 13 13 13 13 13 13 13 13 13
16 14 14 15 16 17 17 17 16 14 13 13 13 15 16 16 16 16 16 16 16 16 16 16 16 15 15 15 15 15 14 14 14 13 13 13 13 13 13 13 12 12 12 12
16 13 14 14 15 15 16 17 16 15 13 13 14 15 15 15 15 15 16 16 16 16 16 15 15 15 15 15 15 14 14 14 14 13 13 13 13 12 12 12 12 12 12 12
14 14 14 15 15 16 16 16 16 15 14 14 14 14 15 14 14 15 15 15 15 15 15 15 15 15 15 14 14 14 14 14 13 13 13 13 12 12 12 12 12 12 12 11
13 14 14 15 15 15 16 16 16 16 15 15 15 14 15 15 15 15 15 15 15 15 15 15 14 14 14 14 14 14 14 13 13 13 13 12 12 12 11 11 11 11 11 11
12 13 13 13 14 15 14 15 15 15 15 15 14 14 15 14 14 14 15 15 15 15 14 14 14 14 14 14 14 13 13 13 13 13 13 12 12 11 11 11 11 11 11 10
12 12 11 12 13 13 14 15 15 15 15 15 15 14 14 14 15 15 15 15 15 14 14 14 14 14 14 13 13 13 13 13 13 12 12 12 11 11 11 11 11 10 10 10
12 12 11 11 12 13 14 15 15 14 14 14 14 14 15 15 14 14 15 15 15 15 14 14 14 14 13 13 13 13 13 12 12 12 12 11 11 11 11 10 10 10 10 10
12 11 11 11 12 12 13 15 16 15 13 14 14 14 14 14 12 13 15 15 15 14 14 14 14 13 13 13 12 12 12 12 12 11 11 11 11 10 10 10 10 10 9 9
11 11 10 10 11 12 13 14 15 13 13 14 15 14 14 13 13 15 15 14 14 14 14 13 13 13 12 12 12 12 12 11 11 11 11 11 10 10 10 9 9 9 9 9
11 10 10 10 10 12 13 13 13 13 14 14 15 15 14 14 14 14 14 14 14 13 13 13 13 12 12 12 12 11 11 11 11 11 10 10 10 10 9 9 9 8 8 8
10 10 10 10 11 12 13 13 14 14 14 14 14 14 14 14 14 14 13 13 13 13 13 12 12 12 12 11 11 11 11 11 10 10 10 10 9 9 9 9 8 8 8 8
10 10 10 10 10 12 13 13 13 14 13 13 13 14 14 13 13 13 13 13 12 12 12 12 12 11 11 11 11 11 10 10 10 10 9 9 9 8 8 8 8 7 7 7
9 9 9 9 10 11 12 13 13 13 13 13 13 13 13 13 12 12 12 12 12 12 12 11 11 11 11 11 10 10 10 10 9 9 9 9 8 8 8 8 7 7 7 7
9 9 9 9 10 10 11 12 12 12 12 12 12 12 12 12 12 12 12 11 11 11 11 11 11 11 10 10 10 10 10 9 9 9 8 8 8 7 7 7 7 7 6 6
Wind_Speed
2 3 2 5 6 6 4 3 3 5 4 4 4 4 6 6 5 6 6 6 6 5 4 4 5 5 5 4 5 5 5 4 4 3 2 2 1 0 0 1 3 4 5 6
4 2 6 4 2 2 2 2 2 2 2 3 4 5 5 6 8 8 9 8 7 5 4 4 4 5 5 4 4 5 5 5 4 3 3 3 2 1 1 0 2 3 4 4
4 5 2 1 1 1 2 1 2 2 2 1 1 4 4 4 4 4 6 7 8 9 8 6 5 4 4 4 4 4 5 5 5 4 2 2 2 2 2 0 0 0 2 3
2 3 1 1 1 1 3 4 3 1 1 3 1 3 6 4 3 4 5 5 7 7 7 6 5 4 4 4 4 3 4 5 5 5 4 4 3 2 2 2 1 1 2 2
3 1 1 1 4 2 4 3 2 2 2 2 2 2 6 2 4 5 5 5 6 7 8 7 7 6 4 4 4 3 3 3 3 4 5 5 3 3 1 1 1 1 0 1
3 2 2 3 3 2 1 4 5 4 3 2 5 5 5 3 7 6 5 5 6 6 6 5 4 4 3 3 3 3 3 3 2 3 5 5 5 4 3 2 2 1 1 1
4 4 3 0 1 3 4 5 4 4 3 5 3 3 5 4 4 7 8 7 7 6 6 5 4 4 3 3 3 2 2 2 2 3 4 5 5 5 5 4 3 2 1 1
1 5 4 1 3 3 2 7 5 3 4 5 3 3 4 2 2 4 5 6 6 6 6 6 6 5 4 4 4 3 2 2 2 3 3 3 4 4 3 4 4 4 3 3
3 5 4 2 2 5 3 3 6 4 2 2 3 2 3 3 3 4 5 5 6 6 7 7 6 5 5 4 4 4 3 2 2 2 2 2 3 3 3 3 3 3 2 2
4 3 4 2 3 1 4 5 4 3 1 3 4 3 3 3 2 3 4 5 5 5 5 6 6 6 5 5 4 3 4 3 2 2 2 1 2 3 3 3 3 3 3 2
3 2 4 2 2 4 1 2 3 3 3 3 3 5 3 5 5 6 6 6 7 7 6 6 6 6 5 4 4 3 3 2 2 2 2 1 1 1 2 2 3 3 2 2
2 4 2 5 5 4 5 5 5 3 3 3 3 5 4 3 4 5 5 5 6 7 6 5 6 5 4 4 4 4 4 3 3 3 3 2 2 2 1 2 2 2 2 2
3 4 1 5 5 2 1 2 3 4 4 3 3 5 4 2 0 1 3 4 4 5 4 3 3 4 5 5 4 4 4 4 4 3 3 2 2 2 2 2 2 2 2 2
3 4 6 7 6 4 3 3 3 4 3 4 5 6 5 3 2 2 2 3 4 4 3 3 3 3 4 4 5 5 5 4 4 4 4 4 3 3 3 2 2 2 2 2
3 2 4 6 6 3 4 4 4 5 6 7 6 6 6 6 5 4 2 2 3 3 3 3 3 3 3 3 3 4 5 4 4 5 4 4 3 2 2 2 1 1 1 2
2 1 1 4 4 2 3 4 5 6 5 5 4 5 6 4 2 1 1 2 3 2 3 3 3 3 3 4 4 4 4 4 5 6 5 4 3 2 2 2 2 1 1 1
1 2 0 4 4 3 4 4 4 3 3 5 6 7 3 1 1 2 4 4 4 4 3 3 4 4 4 4 4 4 5 4 4 4 4 3 3 2 3 3 2 2 1 1
4 2 2 2 1 4 6 3 3 3 3 2 3 2 3 3 4 4 5 5 5 4 3 3 3 3 3 3 2 3 3 4 4 4 4 3 3 3 2 2 2 2 2 2
5 5 3 2 3 5 5 3 1 2 2 1 2 2 3 2 1 3 3 3 5 5 4 4 4 3 2 2 2 2 3 3 4 4 4 4 4 3 3 3 2 2 2 2
3 4 4 2 3 5 5 6 3 2 2 4 1 2 2 1 1 5 5 3 3 3 2 2 2 1 1 2 3 3 3 3 4 5 5 4 4 4 4 3 2 2 2 2
2 2 2 3 4 5 5 5 2 2 6 4 1 1 1 2 5 6 4 3 3 2 1 1 1 2 2 2 3 3 3 4 4 4 3 3 3 4 4 3 2 2 2 2
3 2 2 2 3 5 4 1 2 5 3 2 1 1 1 3 4 3 2 2 1 1 1 2 2 1 1 2 4 3 3 4 3 3 3 3 2 2 3 3 2 2 2 2
3 4 4 5 5 5 2 2 2 1 1 1 1 2 1 2 2 2 1 1 1 1 1 1 2 1 1 1 3 4 3 2 3 3 3 2 2 2 3 4 3 2 2 2
4 1 1 2 4 5 4 3 3 1 1 3 2 2 1 1 2 1 1 1 1 1 1 1 1 1 2 2 2 2 2 2 3 3 3 2 2 2 1 2 3 3 3 3
4 1 1 3 5 5 6 5 3 3 3 3 4 3 1 1 1 2 1 2 2 2 2 2 2 3 3 2 2 1 2 3 3 3 3 3 2 2 2 2 2 4 4 4
3 4 4 6 6 4 7 7 4 3 3 2 3 4 3 1 2 2 2 2 2 2 2 2 2 3 3 3 3 2 2 4 4 3 3 2 2 2 2 2 1 2 3 4
Wind_Direction
30 77 218 226 208 207 214 218 232 232 222 180 205 225 219 206 178 179 181 177 174 176 176 153 141 131 134 138 143 145 148 156 147 143 141 131 140 135 83 97 104 112 114 112
41 276 244 239 265 253 254 269 278 286 247 191 208 239 228 203 200 192 185 182 176 163 143 141 132 127 131 143 149 154 160 163 164 172 173 164 157 162 165 106 99 117 121 122
192 245 249 135 13 326 299 227 240 234 336 345 108 307 260 240 216 193 188 184 174 167 165 162 152 146 141 150 154 168 178 172 168 157 132 104 75 53 46 41 240 183 136 124
254 271 113 67 291 213 259 256 233 192 84 276 186 265 269 222 198 204 202 186 180 173 162 161 155 153 158 167 157 141 168 175 172 154 147 146 148 164 203 201 211 224 135 136
276 242 119 270 264 206 226 256 261 247 184 286 269 200 280 198 197 217 205 186 180 175 168 172 174 170 163 150 142 140 132 161 175 163 164 163 163 179 184 160 153 186 199 152
257 268 196 225 258 226 233 26 23 39 77 281 240 186 272 233 206 198 190 179 176 165 162 167 164 149 135 123 123 128 130 149 162 167 169 169 168 166 148 152 171 203 235 238
323 313 299 271 355 345 61 73 25 358 360 258 252 171 248 251 196 184 179 180 175 163 156 152 146 146 137 132 135 136 131 149 157 154 177 184 178 176 177 176 181 181 197 238
228 288 277 248 181 198 175 133 156 208 236 278 317 211 253 279 159 153 155 160 161 165 165 167 169 165 163 161 155 147 145 157 170 167 184 188 178 177 186 187 183 187 204 219
191 255 281 253 178 146 145 172 175 159 244 268 284 284 312 15 79 112 130 137 164 173 172 175 175 171 169 172 176 170 162 157 178 186 185 176 171 178 186 190 179 184 199 205
168 238 278 274 51 21 156 150 95 121 188 265 291 263 241 237 206 171 159 166 178 174 172 178 179 181 183 185 187 173 164 176 188 175 177 185 190 187 190 183 188 191 193 180
136 170 297 349 191 208 136 111 120 138 165 175 256 269 240 198 196 190 188 186 182 180 183 187 188 190 186 185 183 182 178 170 180 185 184 178 189 188 187 190 200 197 181 166
155 134 247 267 267 213 168 168 147 163 229 191 201 266 297 206 207 189 191 192 186 186 187 188 186 184 182 188 190 192 190 190 202 193 180 187 182 163 170 195 193 182 170 177
137 119 64 331 328 329 209 194 177 158 147 175 191 260 334 15 356 206 188 194 190 185 181 179 181 191 196 200 198 197 196 201 205 187 178 180 173 174 191 192 179 175 165 165
129 137 177 209 227 226 237 233 190 150 173 217 220 244 297 307 280 269 227 195 177 177 177 177 190 207 211 208 203 200 204 202 196 181 177 185 199 203 204 193 171 175 173 165
93 187 221 241 246 228 226 236 217 198 196 202 230 225 246 248 235 228 225 184 149 166 176 187 199 211 217 218 216 210 204 200 185 176 183 196 200 195 182 179 181 158 146 165
71 193 266 282 268 256 254 256 233 227 217 212 217 241 251 238 211 218 221 176 175 191 200 206 206 207 214 217 218 214 206 199 175 175 190 187 178 183 187 182 162 145 127 123
183 143 190 265 292 336 279 256 224 223 231 193 213 235 252 229 194 213 212 192 194 217 223 220 218 216 224 225 212 207 207 185 165 173 175 171 171 181 192 182 154 153 158 121
167 153 163 241 3 242 250 263 206 204 249 208 197 224 211 220 223 220 200 190 207 221 218 225 224 222 229 230 225 207 184 167 163 167 169 170 168 180 178 159 162 176 165 157
174 159 156 164 221 264 285 293 228 190 261 298 197 247 250 253 17 318 269 216 206 205 200 205 211 211 209 215 204 165 156 156 159 168 177 180 176 172 166 173 186 185 160 160
85 120 141 158 195 234 255 275 267 118 276 301 244 231 263 55 339 280 273 248 230 209 198 199 200 172 181 206 165 149 161 161 183 189 187 180 173 171 177 185 186 168 154 163
35 49 157 191 222 257 271 289 60 146 250 281 238 213 208 208 233 259 263 231 214 197 195 175 156 179 205 188 156 158 169 198 207 190 175 170 179 176 171 162 160 148 141 127
176 173 202 171 205 257 301 58 168 235 263 268 240 203 221 257 273 281 253 228 210 176 161 148 149 204 224 183 162 173 205 219 193 168 160 163 172 174 157 146 150 145 141 137
196 198 197 197 219 264 291 232 269 253 301 298 280 260 234 287 299 305 281 252 242 193 180 171 165 181 264 230 178 186 219 212 175 157 159 162 164 163 157 158 162 163 163 167
289 292 171 255 276 297 312 329 337 345 318 309 315 296 276 271 290 309 297 269 271 252 211 196 161 180 237 248 227 204 202 181 163 162 166 169 165 163 158 167 174 182 191 193
253 255 244 269 289 318 313 309 310 326 344 349 342 330 303 182 255 254 270 260 247 250 237 205 197 212 229 226 228 204 177 161 159 164 173 173 170 172 178 191 204 203 213 202
230 204 206 240 247 248 275 284 289 301 313 320 340 339 321 271 258 258 270 272 261 257 251 231 228 227 228 216 215 212 185 166 163 172 183 188 188 192 193 193 238 254 223 220
Height
1519 1525 1529 1525 1523 1523 1525 1528 1530 1526 1520 1522 1526 1526 1524 1523 1524 1524 1525 1526 1527 1529 1530 1531 1532 1533 1534 1535 1535 1536 1536 1537 1537 1537 1537 1538 1538 1539 1539 1539 1539 1540 1540 1539
1525 1528 1522 1519 1519 1520 1522 1527 1528 1524 1519 1521 1525 1525 1522 1521 1521 1521 1523 1524 1525 1527 1529 1530 1531 1532 1532 1533 1534 1534 1535 1535 1536 1536 1537 1537 1537 1538 1538 1539 1539 1539 1539 1539
1526 1523 1518 1519 1521 1523 1524 1527 1527 1526 1522 1521 1525 1530 1524 1521 1520 1521 1522 1523 1524 1525 1526 1528 1529 1530 1531 1532 1532 1533 1533 1534 1534 1535 1536 1536 1537 1537 1537 1537 1538 1538 1538 1538
1523 1518 1518 1521 1522 1522 1528 1520 1520 1523 1530 1535 1529 1542 1528 1522 1521 1520 1520 1522 1522 1524 1525 1526 1528 1529 1529 1530 1531 1532 1532 1533 1533 1534 1534 1535 1535 1535 1535 1536 1536 1537 1537 1537
1524 1519 1520 1522 1521 1519 1522 1517 1519 1521 1528 1534 1532 1539 1532 1522 1523 1520 1519 1520 1521 1522 1523 1525 1527 1527 1528 1529 1529 1530 1531 1531 1532 1532 1533 1533 1533 1534 1534 1535 1535 1535 1536 1536
1520 1517 1517 1518 1516 1516 1517 1519 1522 1528 1534 1543 1533 1538 1535 1525 1519 1517 1517 1518 1519 1521 1523 1525 1526 1526 1527 1528 1528 1529 1529 1529 1530 1530 1531 1532 1532 1532 1533 1533 1533 1534 1534 1534
1525 1520 1517 1516 1518 1518 1520 1533 1546 1546 1551 1546 1529 1533 1531 1517 1512 1512 1514 1516 1518 1520 1521 1523 1524 1525 1525 1526 1527 1527 1528 1528 1528 1528 1529 1530 1530 1530 1531 1531 1531 1531 1532 1532
1535 1533 1520 1516 1518 1522 1523 1531 1549 1555 1553 1545 1530 1532 1525 1513 1511 1511 1512 1514 1517 1519 1520 1521 1522 1523 1524 1525 1525 1526 1526 1526 1527 1527 1527 1528 1528 1528 1529 1529 1529 1529 1529 1530
1533 1532 1517 1514 1514 1517 1523 1529 1530 1542 1541 1545 1537 1528 1519 1513 1512 1512 1513 1514 1516 1517 1519 1520 1521 1522 1523 1524 1524 1525 1525 1525 1525 1526 1526 1526 1526 1526 1527 1527 1527 1527 1527 1528
1524 1530 1520 1515 1514 1515 1518 1523 1534 1541 1548 1550 1539 1533 1529 1519 1515 1514 1514 1514 1515 1516 1518 1519 1520 1520 1521 1523 1524 1524 1524 1524 1524 1524 1524 1524 1525 1525 1525 1525 1525 1525 1525 1526
1520 1529 1526 1520 1521 1522 1522 1525 1530 1539 1542 1549 1548 1538 1516 1514 1513 1513 1513 1513 1514 1515 1516 1517 1518 1519 1520 1521 1521 1522 1522 1522 1522 1522 1523 1523 1523 1523 1523 1523 1523 1523 1523 1523
1520 1529 1533 1525 1517 1514 1517 1521 1528 1540 1541 1541 1545 1538 1511 1511 1511 1511 1511 1512 1513 1514 1514 1515 1516 1517 1518 1518 1519 1519 1520 1520 1520 1521 1521 1521 1521 1521 1521 1521 1521 1521 1521 1521
1519 1529 1538 1534 1528 1519 1518 1517 1521 1528 1536 1541 1543 1534 1512 1511 1511 1510 1511 1511 1512 1512 1513 1513 1514 1515 1515 1516 1517 1517 1517 1518 1518 1519 1519 1519 1519 1519 1519 1519 1519 1519 1518 1519
1516 1525 1533 1536 1530 1522 1521 1518 1518 1525 1535 1536 1533 1526 1516 1513 1512 1511 1510 1510 1510 1511 1511 1511 1512 1512 1513 1514 1514 1515 1515 1516 1516 1516 1516 1516 1516 1516 1517 1517 1517 1517 1517 1516
1517 1524 1522 1521 1517 1516 1517 1516 1516 1520 1523 1528 1524 1521 1516 1512 1511 1510 1509 1509 1509 1509 1510 1510 1510 1510 1511 1511 1511 1512 1512 1513 1513 1514 1514 1514 1514 1514 1514 1514 1514 1514 1514 1514
1518 1522 1521 1520 1515 1515 1516 1514 1513 1514 1515 1517 1517 1517 1510 1509 1509 1509 1508 1508 1507 1507 1508 1508 1508 1508 1508 1508 1508 1509 1508 1510 1511 1511 1511 1512 1512 1512 1512 1512 1512 1512 1512 1512
1520 1523 1526 1527 1519 1517 1522 1514 1512 1512 1510 1511 1515 1512 1507 1507 1507 1506 1506 1505 1505 1505 1505 1505 1505 1505 1505 1505 1505 1505 1505 1506 1507 1508 1508 1509 1509 1509 1509 1509 1509 1509 1509 1509
1519 1522 1527 1529 1525 1530 1518 1507 1506 1508 1507 1506 1506 1505 1505 1504 1503 1504 1503 1503 1503 1503 1502 1502 1502 1502 1502 1502 1502 1503 1503 1503 1504 1505 1505 1506 1506 1507 1507 1507 1507 1507 1507 1507
1512 1518 1526 1530 1530 1524 1513 1506 1505 1508 1509 1505 1504 1503 1502 1502 1502 1502 1501 1501 1500 1500 1499 1500 1500 1500 1499 1500 1500 1500 1500 1501 1501 1501 1502 1503 1504 1504 1504 1504 1504 1504 1504 1504
1512 1515 1523 1528 1527 1527 1514 1504 1501 1504 1510 1503 1502 1501 1501 1501 1505 1501 1499 1498 1498 1497 1497 1497 1497 1497 1497 1497 1497 1497 1497 1498 1498 1499 1500 1500 1501 1501 1501 1501 1501 1501 1502 1501
1519 1521 1524 1526 1526 1518 1508 1502 1501 1514 1511 1502 1500 1500 1499 1499 1500 1498 1496 1496 1495 1495 1495 1495 1494 1494 1494 1494 1494 1494 1494 1495 1496 1496 1497 1497 1498 1498 1498 1498 1498 1499 1499 1499
1521 1523 1525 1526 1527 1521 1505 1503 1506 1506 1501 1500 1499 1498 1498 1497 1496 1495 1494 1493 1493 1492 1492 1492 1492 1491 1492 1491 1491 1491 1491 1492 1493 1493 1493 1494 1495 1495 1495 1495 1495 1495 1496 1496
1517 1517 1517 1518 1516 1507 1504 1503 1502 1501 1500 1499 1498 1497 1496 1495 1494 1492 1491 1491 1490 1490 1490 1490 1489 1489 1489 1489 1488 1487 1488 1489 1490 1490 1491 1491 1492 1492 1492 1492 1492 1492 1492 1492
1514 1511 1513 1512 1508 1505 1503 1502 1501 1500 1499 1498 1497 1495 1494 1493 1492 1490 1489 1488 1488 1488 1487 1487 1486 1486 1486 1486 1485 1485 1485 1486 1486 1487 1488 1488 1489 1489 1489 1490 1490 1489 1489 1489
1513 1512 1512 1512 1507 1504 1502 1501 1500 1499 1498 1496 1495 1493 1492 1490 1490 1489 1487 1486 1486 1485 1484 1484 1483 1483 1483 1483 1482 1482 1482 1483 1483 1484 1484 1485 1485 1486 1486 1486 1486 1486 1486 1486
1509 1510 1511 1509 1505 1504 1502 1500 1499 1497 1495 1494 1493 1491 1490 1489 1487 1486 1485 1484 1483 1482 1482 1481 1480 1480 1479 1479 1479 1479 1479 1480 1480 1480 1481 1481 1482 1482 1482 1483 1483 1483 1483 1483